www.pogodaiklimat.ru

Архив погоды в Бредах (Челябинская область, Россия)

Время
(UTC), дата
18 11.07
21 11.07
00 12.07
03 12.07
06 12.07
09 12.07
12 12.07
15 12.07
18 12.07
21 12.07
00 13.07
03 13.07
06 13.07
09 13.07
12 13.07
15 13.07
18 13.07
21 13.07
00 14.07
03 14.07
06 14.07
09 14.07
12 14.07
15 14.07
18 14.07
21 14.07
00 15.07
03 15.07
06 15.07
09 15.07
12 15.07
15 15.07
18 15.07
21 15.07
00 16.07
03 16.07
06 16.07
09 16.07
12 16.07
15 16.07
18 16.07
21 16.07
00 17.07
03 17.07
06 17.07
09 17.07
12 17.07
15 17.07
18 17.07
21 17.07
00 18.07
03 18.07
06 18.07
09 18.07
12 18.07
15 18.07
Ветер
(напр.,м/с)
Видим. Явления Облачность Т
(С)
Тd
(С)
f
(%)
Тe
(С)
Тes
(С)
Комфортность P
(гПа)
Po
(гПа)
Тmin
(С)
Tmax
(С)
R
(мм)
R24
(мм)
S
(см)
С 3 10 км 6/0
[Ac lent Ci sp]
+19.5 +14.9 75 +22 +22 комфорт 1006.1 970.7
СВ 3 10 км зарница 9/6 600 м
[Cb cap Ac trans Ci sp]
+18.3 +14.8 80 +19 +19 1003.5 968.0
СВ 2 50 км 10/8 1000 м
[Sc Ac lent Ci sp]
+17.6 +14.5 82 +18 +18 1002.2 966.7
СВ 5-10 {10} 50 км 10/0
[Ac cast Cc]
+20.4 +15.6 74 +23 +23 комфорт 1000.4 965.3 +17.2
С 4 50 км 10/4 1000 м
[Sc Ac lent Ci sp]
+23.4 +16.2 64 +28 +28 душно 998.7 964.0
СВ 5 50 км 10/3 1000 м
[Sc Ac As]
+24.3 +15.8 59 +27 +27 жарко 995.8 961.3
СВ 4 {12} 50 км 10/6 600 м
[Cb cap Ac cast Ci sp]
+24.8 +16.2 59 +28 +28 жарко 994.4 960.0
СВ 4 {13} 50 км {гроза, ливн. дождь} 9/6 600 м
[Cb cap Ac trans Ci sp]
+20.8 +16.4 76 +24 +24 комфорт 994.9 960.0 +28.3 0.3
В 4 {10} 4000 м гроза, ливневой дождь 10/10 600 м
[Cb calv]
+18.1 +17.5 96 +18 +18 996.5 961.3
СВ 3 {10} 10 км в посл. час ливневой дождь {гроза} 10/10 600 м
[Cb cap]
+17.8 +16.8 94 +18 +18 995.2 960.0
СВ 4 50 км {гроза, ливн. дождь} 9/6 1000 м
[Sc Ac lent Ci sp]
+17.6 +16.4 93 +17 +17 995.5 960.2
СВ 4 {10} 50 км 8/4 1000 м
[Sc Ac lent Cc]
+19.4 +16.8 85 +21 +22 комфорт 996.4 961.3 +16.7 3
СВ 5-10 {10} 50 км в посл. час ливневой дождь 10/6 600 м
[Cb cap Ac As]
+20.9 +16.7 77 +25 +25 комфорт 997.6 962.7
СВ 1 {11} 50 км в посл. час гроза {ливн. дождь} 10/10 600 м
[Cb cap]
+19.5 +18.5 94 +23 +23 комфорт 1000.5 965.3
В 5-10 {11} 50 км {гроза, ливн. дождь} 10/8 1000 м
[Sc Ac trans Ci sp]
+25.3 +17.0 60 +29 +29 душно 998.5 964.0
СВ 4 {10} 50 км 10/10 1000 м
[Sc]
+23.7 +16.0 62 +27 +27 жарко 1000.0 965.3 +25.3 4
С 4 10 км 10/8 1000 м
[Sc Ac trans Ci sp]
+20.2 +17.2 83 +23 +23 комфорт 1000.4 965.3
С 1 {11} 10 км в посл. час ливневой дождь 10/8 600 м
[Cb cap Ac trans Ci sp]
+17.4 +16.1 92 +18 +18 1002.2 966.7
СВ 4 50 км {ливн. дождь} 10/6 1000 м
[Sc Ac trans Ci sp]
+18.5 +17.3 93 +19 +19 1002.1 966.7
СВ 4 {10} 50 км {ливн. дождь} 10/8 600 м
[Cb cap Ac As]
+19.6 +17.9 90 +22 +22 комфорт 1003.3 968.0 +17.1 0.8
СВ 5-10 {11} 50 км {ливн. дождь} 10/8 1000 м
[Sc Ac trans Ci sp]
+22.4 +18.4 78 +28 +28 душно 1004.3 969.3
СВ 6-12 {11} 4000 м гроза, ливневой дождь 10/10 600 м
[Cb calv]
+19.2 +17.3 89 +21 +21 комфорт 1006.1 970.7
С 5 50 км слаб. ливневой дождь {гроза} 10/6 1000 м
[Sc Ac As]
+19.0 +18.8 99 +20 +20 1004.7 969.3
С 5-10 {12} 50 км {ливн. дождь} 10/10 600 м
[Cb cap]
+20.8 +18.9 89 +25 +25 комфорт 1005.9 970.7 +24.5 10
С 5-10 {12} 10 км зарница {ливн. дождь} 10/8 1000 м
[Sc Ac lent Ci sp]
+18.7 +17.0 90 +19 +19 1006.2 970.7
СВ 4 {11} 4000 м слаб. ливневой дождь 10/10 600 м
[Cb cap]
+17.6 +17.3 98 +17 +17 1006.3 970.7
СВ 4 {10} 50 км {ливн. дождь} 10/10 1000 м
[Sc]
+17.3 +17.1 99 +17 +17 1006.4 970.7
СВ 5 {11} 50 км 10/0
[Ac und]
+17.2 +16.6 96 +17 +17 1007.7 972.0 +17.0 5
СВ 4 {11} 50 км 10/10 1000 м
[Sc]
+18.2 +17.0 93 +18 +18 1007.6 972.0 +16.9
СВ 4 {12} 50 км 10/8 1000 м
[Sc Ac und]
+19.6 +17.6 88 +22 +22 комфорт 1008.8 973.3
СВ 3 {10} 50 км 10/8 600 м
[Cb cap Ac trans Ci sp]
+20.3 +17.7 85 +24 +24 комфорт 1008.7 973.3
С 4 50 км в посл. час ливневой дождь 10/10 600 м
[Cb cap]
+17.8 +17.6 99 +18 +18 1009.0 973.3 +22.3 3
СВ 4-10 {10} 4000 м слаб. дождь {ливн. дождь} 10/10 300 м
[Frnb Ns]
+16.8 +16.5 98 +16 +16 1009.1 973.3
С 4 {10} 10 км {дождь} 9/9 1000 м
[Sc]
+15.8 +15.0 95 +15 +15 1007.9 972.0
СВ 4 {11} 20 км {дождь} 10/10 600 м
[Cb cap]
+15.9 +14.8 93 +15 +15 1009.3 973.3
С 4-10 {10} 50 км 10/10 1000 м
[Sc]
+15.9 +14.6 92 +15 +15 1009.3 973.3 +15.7 5
СВ 3 {10} 50 км 10/10 600 м
[Cb cap]
+17.4 +15.2 87 +17 +17 1009.1 973.3
СВ 5-10 {11} 50 км 10/10 600 м
[Cb cap]
+21.5 +16.7 74 +25 +25 комфорт 1010.0 974.7
СВ 3 {11} 50 км 10/10 1000 м
[Sc]
+21.1 +16.1 73 +24 +24 комфорт 1010.1 974.7
С 4-10 {11} 50 км 6/4 1000 м
[Sc Ac trans Ci sp]
+21.8 +14.2 62 +25 +25 комфорт 1010.0 974.7 +23.0
С 3 10 км 4/0
[Ac lent]
+16.8 +13.5 81 +17 +17 1012.0 976.0
С 3 10 км 3/0
[Ac trans]
+14.9 +13.4 91 +14 +14 1011.7 975.5
С 3 50 км 4/0
[Ac lent]
+13.5 +12.6 94 +12 +12 1012.4 976.0
С 3 50 км 4/0
[Ac lent Ci fib]
+17.7 +14.4 81 +18 +20 1012.4 976.6 +13.4
С 5 50 км 10/8 600 м
[Cu med, cong Ci sp]
+21.6 +14.0 62 +24 +24 комфорт 1011.4 976.0
С 4 {10} 50 км 9/9 1000 м
[Cu med, cong]
+24.3 +14.1 53 +27 +28 жарко 1011.1 976.0
С 3 {10} 50 км 8/6 1000 м
[Cu med, cong Ci fib]
+24.3 +14.5 54 +27 +29 жарко 1010.8 975.8
С 2 50 км 9/3 1000 м
[Sc Ci fib]
+22.6 +14.7 61 +26 +26 жарко 1011.2 976.0 +25.7
СЗ 3 10 км 3/3 1000 м
[Sc]
+17.7 +14.0 79 +18 +18 1011.9 976.0
СЗ 2 10 км 3/1 1000 м
[Sc Ci sp]
+15.5 +13.2 86 +15 +15 1012.2 976.0
штиль 0 50 км 8/3 1000 м
[Sc Ci fib]
+13.0 +12.1 94 +12 +12 1011.1 974.7
СЗ 1 50 км 10/0
[Ac cast Ci sp]
+18.5 +15.0 80 +20 +20 1010.4 974.7 +12.7
СЗ 3 50 км 10 баллов +24.1 +13.3 51 +26 +26 жарко 1009.7 974.7
СЗ 2 50 км 10 баллов +25.2 +14.0 50 +28 +28 жарко 1008.1 973.3
З 2 50 км 10 баллов +25.3 +14.1 50 +28 +28 жарко 1006.8 972.0
СЗ 4 50 км 10 баллов +21.1 +13.0 60 +23 +23 комфорт 1007.3 972.0 +27.4
Местоположение метеостанции Бреды (Челябинская область, Россия): широта 52.43 долгота 60.35 высота над уровнем моря 310 м.
В архиве по умолчанию представлена погода в Бредах за последнюю неделю. Архивные данные за месяц целиком и за предыдущие месяцы, начиная с января 2011 года, Вы можете получить, выбрав интересующий диапазон дат из раскрывающегося списка и нажав кнопку "Найти!".
*Определитесь, кто Вы:
Внимание! Время в таблицах - всемирное. Для получения местного времени необходимо прибавить поправку, которая равна 5 ч.
Некоторые строки с данными для отдельных станций могут быть выделены курсивом. Это означает, что фактические данные отсутствуют по различным причинам, а приведенные значения являются расчетными модельными данными для данного пункта наблюдений.
Смотрите также архив погоды в соседних городах и на ближайших метеорологических станциях:
Партнеры нашего сайта:      
Пояснения к столбцам:
  • Ветер - указаны скорость ветра в м/с - средняя за 10 мин, порывы в срок и между сроками (в фигурных скобках) и направление, откуда дует ветер: С - северный,
  • СВ - северо-восточный, В - восточный, ЮВ - юго-восточный, Ю - южный, ЮЗ - юго-западный, З - западный, СЗ - северо-западный.
  • Видимость - горизонтальная дальность видимости в метрах или километрах. При видимости от 1 до 10 км при отсутствии осадков обычно наблюдается дымка, при ухудшении видимости до 1 км и менее - туман. В сухую погоду видимость может ухудшаться дымом, пылью или мглою.
  • Явления - указаны атмосферные явления, наблюдавшиеся в срок или в последний час перед сроком; фигурными скобками обозначены явления, наблюдавшиеся между сроками (за 1-3 часа до срока); квадратными скобками обозначены град или гололедные отложения с указанием их диаметра в мм.
  • Облачность - указаны через наклонную черту общая и нижняя облачность в баллах и высота нижней границы облаков в метрах; квадратными скобками обозначены формы облаков: Ci - перистые, Cs - перисто-слоистые, Cc - перисто-кучевые, Ac - высококучевые, As - высокослоистые, Sc - слоисто-кучевые, Ns - слоисто-дождевые, Cu - кучевые, Cb - кучево-дождевые. Подробнее классификацию облаков см. в Атласе облаков (PDF).
  • T - Температура воздуха - температура, измеренная на высоте 2 м над землей.
  • Td - Температура точки росы - температура, при понижении до которой содержащийся в воздухе водяной пар достигнет насыщения.
  • f - Относительная влажность воздуха - влажноcть воздуха, измеренная на высоте 2 м над землей.
  • Te - Эффективная температура - температура, которую ощущает одетый по сезону человек в тени. Характеристика душности погоды. При расчете учитывается влияние влажности воздуха и скорости ветра на теплоощущения человека.
  • Tes - Эффективная температура на солнце - температура, которую ощущает человек, с поправкой на солнечный нагрев. Характеристика знойности погоды. Зависит от высоты солнца над горизонтом, облачности и скорости ветра. Ночью, в пасмурную погоду, а также при ветре 12 м/с и более поправка равна нулю.
  • P - Атмосферное давление - приведенное к уровню моря атмосферное давление.
  • Po - Атмосферное давление - измеренное на уровне метеостанции атмосферное давление.
  • Tmin - Минимальная температура - минимум температуры воздуха на высоте 2 м над землей.
  • Tmax - Максимальная температура - максимум температуры воздуха на высоте 2 м над землей.
  • R - Количество осадков - Количество выпавших осадков за период времени, мм. При наведении курсора мыши на число - период времени, за который выпало указанное количество осадков.
  • R24 - Количество осадков - Количество выпавших осадков за 24 часа, мм.
  • S - Снежный покров - Высота снежного покрова, см. При наведении курсора мыши на число - состояние снежного покрова и степень покрытия местности в баллах.